[[{"header":{"parameterUnit":"m.s-1","parameterCategory":1,"la1":30.2992,"la2":30.254,"lo1":-89.0895,"lo2":-89.0443,"dy":0.0025,"dx":0.0025,"nx":19,"ny":19,"refTime":"2026-03-17T09:00:00:Z","depth":0,"parameterNumber":2,"parameterNumberName":"U-component_of_WINDS"},"data":[0,0,0,-3.8901,-3.8903,-3.8978,-3.8979,-3.9096,-3.9098,0,0,0,0,0,0,0,0,0,0,0,-3.8892,-3.8893,-3.8901,-3.8903,-3.8978,-3.8979,-3.9096,-3.9098,0,0,0,0,0,0,0,0,0,0,0,-3.8891,-3.8893,-3.8894,-3.8904,-3.8978,-3.8979,-3.9096,-3.9031,0,0,0,0,0,0,0,0,0,0,-3.8955,-3.8959,-3.8892,-3.8894,-3.8904,-3.8978,-3.8979,-3.9028,-3.9035,-3.9071,0,-3.9107,0,-3.9104,-3.9107,-3.9107,0,0,0,-3.8894,-3.8953,-3.8961,-3.8895,-3.8905,-3.8978,-3.8942,-3.9032,-3.904,-3.9082,-3.9108,-3.9112,-3.9106,-3.9108,-3.9108,-3.935,-3.9351,0,0,-3.8889,-3.8912,-3.8955,-3.8967,-3.8957,-3.8939,-3.8944,-3.9037,-3.9067,-3.9109,-3.9115,-3.9108,-3.9109,-3.911,-3.9348,-3.935,0,0,0,-3.8884,-3.891,-3.8916,-3.8963,-3.8975,-3.8942,-3.8947,-3.9063,-3.9063,-3.9116,-3.911,-3.9109,-3.9111,-3.9346,-3.9349,-3.945,0,0,0,-3.8881,-3.8907,-3.8914,-3.8929,-3.8974,-3.902,-3.8972,-3.9057,-3.9067,-3.9109,-3.9109,-3.9112,-3.9344,-3.9348,-3.9443,-3.9494,0,0,0,-3.8883,-3.8907,-3.8922,-3.893,-3.8964,-3.9018,-3.9023,-3.9058,-3.9064,-3.9107,-3.9113,-3.9343,-3.9347,-3.9438,-3.9485,-3.9565,0,0,0,-3.8891,-3.9011,-3.8924,-3.9056,-3.8963,-3.908,-3.9022,-3.9108,-3.9158,-3.911,-3.9345,-3.9348,-3.9436,-3.9479,-3.9559,-3.9638,-3.9673,0,0,-3.9055,-3.9031,-3.9107,-3.9031,-3.917,-3.9067,-3.922,-3.9243,-3.9226,-3.9309,-3.9315,-3.9446,-3.9484,-3.9564,-3.9858,-3.9886,0,0,0,-3.9166,-3.9221,-3.9253,-3.9301,-3.9322,-3.9345,-3.9342,-3.9351,-3.9421,-3.9274,-3.9495,-3.9517,-3.9563,-3.96,-3.9624,-3.9662,-3.9366,-3.9366,-3.9365,-3.9432,-3.9404,-3.9527,-3.9509,-3.9557,-3.9554,-3.959,-3.9601,-3.9558,-3.9611,-3.9636,-3.9818,-3.9862,-3.988,-3.992,-3.9675,-3.9675,-3.9675,-3.9676,-3.967,-3.9744,-3.9685,-3.9783,-3.9753,-3.9836,-3.9838,-3.9805,-3.9877,-3.9797,-3.9836,-3.9751,-3.9911,-3.9945,-3.9683,-3.9682,-3.9681,-3.968,-3.968,-3.9842,-3.9872,-3.9881,-3.9949,-4.0005,-3.9981,-4.0054,-4.0024,-3.9996,-4.0034,-4.0058,-4.0056,-4.0051,-4.0048,-4.0048,-4.0049,-4.0049,-4.005,-4.005,-4.0016,-4.0023,-4.0088,-4.0122,-4.0149,-4.0182,-4.018,-4.0207,-4.0228,-4.02,-4.02,-4.0153,-3.9931,-3.9877,-4.006,-4.0058,-4.0057,-4.0056,-4.0055,-4.027,-4.0208,-4.0309,-4.0337,-4.0374,-4.0432,-4.0392,-4.0448,-4.0466,-4.0503,-4.0447,-4.0288,-4.0262,-4.0243,-4.0197,-4.0452,-4.0452,-4.0452,-4.0452,-4.0415,-4.0399,-4.0496,-4.0543,-4.0585,-4.0559,-4.0675,-4.0675,-4.0666,-4.0675,-4.0633,-4.057,-4.0552,-4.0537,-4.0511,-4.0469,-4.0787,-4.0787,-4.0787,-4.057,-4.0557,-4.0661,-4.0651,-4.0677,-4.0701,-4.0809,-4.0866,-4.0842,-4.08,-4.0682,-4.0668,-4.0566,-4.0534,-4.049,-4.0451,-4.0372,0,0]},{"header":{"parameterUnit":"m.s-1","parameterCategory":1,"la1":30.2992,"la2":30.254,"lo1":-89.0895,"lo2":-89.0443,"dy":0.0025,"dx":0.0025,"nx":19,"ny":19,"refTime":"2026-03-17T09:00:00:Z","depth":0,"parameterNumber":3,"parameterNumberName":"V-component_of_WINDS"},"data":[0,0,0,-1.8684,-1.8685,-1.8724,-1.8724,-1.8781,-1.8781,0,0,0,0,0,0,0,0,0,0,0,-1.8678,-1.8678,-1.8684,-1.8685,-1.8724,-1.8724,-1.8781,-1.8781,0,0,0,0,0,0,0,0,0,0,0,-1.8677,-1.8678,-1.8679,-1.8685,-1.8724,-1.8724,-1.878,-1.8749,0,0,0,0,0,0,0,0,0,0,-1.871,-1.8709,-1.8678,-1.8679,-1.8686,-1.8724,-1.8724,-1.8747,-1.8751,-1.8766,0,-1.8782,0,-1.8783,-1.8786,-1.8786,0,0,0,-1.8682,-1.8706,-1.8712,-1.8679,-1.8686,-1.8724,-1.8705,-1.8749,-1.8753,-1.8771,-1.8783,-1.8785,-1.8784,-1.8786,-1.8786,-1.8889,-1.889,0,0,-1.8679,-1.8687,-1.8709,-1.8714,-1.8709,-1.8704,-1.8707,-1.8751,-1.8764,-1.8783,-1.8786,-1.8784,-1.8786,-1.8787,-1.8889,-1.8889,0,0,0,-1.8676,-1.8686,-1.8691,-1.8712,-1.8719,-1.8705,-1.8708,-1.8762,-1.8763,-1.8786,-1.8785,-1.8787,-1.8788,-1.8888,-1.8889,-1.8928,0,0,0,-1.8674,-1.8684,-1.869,-1.8695,-1.8718,-1.8741,-1.8718,-1.876,-1.8765,-1.8785,-1.8787,-1.8788,-1.8887,-1.8888,-1.8926,-1.8946,0,0,0,-1.8673,-1.8683,-1.8691,-1.8695,-1.8712,-1.874,-1.8744,-1.8761,-1.8764,-1.8786,-1.8788,-1.8887,-1.8888,-1.8923,-1.8942,-1.8974,0,0,0,-1.8675,-1.8726,-1.8692,-1.8748,-1.8712,-1.8764,-1.8743,-1.8782,-1.8805,-1.8787,-1.8887,-1.8889,-1.8922,-1.8939,-1.8972,-1.9003,-1.9017,0,0,-1.8743,-1.8734,-1.8767,-1.8737,-1.8798,-1.8758,-1.8824,-1.8838,-1.8833,-1.8871,-1.8873,-1.8926,-1.8941,-1.8974,-1.9092,-1.9103,0,0,0,-1.8791,-1.8815,-1.8829,-1.8851,-1.8863,-1.8874,-1.8877,-1.8882,-1.8914,-1.8854,-1.8947,-1.8956,-1.8974,-1.8989,-1.8998,-1.9013,-1.8896,-1.8896,-1.8896,-1.89,-1.889,-1.8943,-1.8938,-1.8959,-1.8961,-1.8978,-1.8985,-1.8969,-1.8991,-1.9003,-1.9075,-1.9093,-1.91,-1.9116,-1.9018,-1.9019,-1.9019,-1.9019,-1.8999,-1.903,-1.9008,-1.9051,-1.904,-1.9076,-1.9079,-1.9067,-1.9098,-1.9067,-1.9082,-1.9049,-1.9112,-1.9125,-1.9022,-1.9021,-1.9021,-1.9021,-1.902,-1.9069,-1.9082,-1.9087,-1.9117,-1.9141,-1.9134,-1.9165,-1.9154,-1.9145,-1.916,-1.917,-1.917,-1.9167,-1.9166,-1.9166,-1.9166,-1.9167,-1.9167,-1.9167,-1.9139,-1.9143,-1.9171,-1.9187,-1.9199,-1.9213,-1.9215,-1.9227,-1.9237,-1.9226,-1.9226,-1.9208,-1.912,-1.9098,-1.9171,-1.917,-1.917,-1.9169,-1.9169,-1.9243,-1.9218,-1.926,-1.9272,-1.9289,-1.9313,-1.9299,-1.9323,-1.9331,-1.9347,-1.9325,-1.9262,-1.9252,-1.9244,-1.9226,-1.9327,-1.9327,-1.9327,-1.9327,-1.9302,-1.9295,-1.9336,-1.9356,-1.9374,-1.9365,-1.9412,-1.9413,-1.9411,-1.9415,-1.9399,-1.9373,-1.9366,-1.936,-1.935,-1.9333,-1.9459,-1.946,-1.946,-1.9365,-1.9359,-1.9402,-1.9399,-1.9411,-1.9422,-1.9465,-1.9489,-1.9481,-1.9465,-1.9418,-1.9412,-1.9371,-1.9359,-1.9342,-1.9327,-1.9295,0,0]}]]